Location: Caseificio
(44.7500°N, 11.0500°E)
Time: 21:46:02
(UTC+00:00)

Helios 1A - Pass Details

Date: 26 May 2022
Orbit: 582 x 600 km, 98.2° (Epoch: 29 June)

Event Time Altitude Azimuth Distance (km) Brightness Sun altitude
Exits shadow 01:17:36 14° 147° (SSE) 1,663 5.0 -18.3°
Maximum altitude 01:21:01 54° 72° (ENE) 729 3.6 -18.0°
Drops below altitude 10° 01:25:08 10° 355° (N) 1,949 6.4 -17.6°
Sets 01:27:21 0° 351° (N) 2,858 7.2 -17.4°
